EHI
21 24 26 29 39 47 49 44 40 40 39 36 30 25 20 18 20 28 34 32 24 17 15 14 16 15 13 12 12 11 9 7 5 3 1 2 3 6 8 9 9 9 10
30 36 36 36 43 51 52 48 44 42 39 35 30 26 22 19 20 28 35 32 25 19 16 19 21 18 15 14 15 13 10 7 6 4 2 1 2 3 6 8 10 10 9
40 47 50 47 48 52 54 51 48 47 42 36 31 29 28 24 24 30 37 36 29 24 22 24 25 22 18 16 17 17 14 9 6 5 3 2 2 2 3 6 9 9 9
45 52 58 56 51 51 55 57 57 54 49 42 36 35 34 30 29 34 40 41 36 30 28 28 27 25 19 16 16 17 15 10 6 5 5 5 4 3 2 4 6 8 10
42 50 58 59 53 49 54 63 66 63 57 51 44 40 36 32 32 37 43 43 38 34 32 31 30 27 21 16 14 13 12 9 7 6 7 6 6 4 2 2 3 6 9
34 41 54 60 55 49 53 63 70 68 63 56 49 43 37 34 35 40 43 40 35 33 35 35 33 31 25 20 15 12 11 10 9 9 8 6 6 5 3 2 1 3 4
27 34 48 58 58 55 57 64 69 69 66 59 53 47 42 38 38 40 41 38 34 34 36 36 35 33 29 24 20 17 14 14 14 13 11 9 7 7 5 2 0 0 1
25 29 40 49 55 59 62 65 68 68 66 62 57 52 47 42 40 41 41 39 37 36 37 37 35 32 26 23 22 21 19 19 19 16 14 12 10 8 6 3 1 1 1
23 25 32 43 53 60 65 67 67 67 65 63 60 54 49 45 42 43 44 42 39 39 40 40 35 30 24 20 20 20 21 23 22 19 16 15 12 9 7 7 6 4 3
22 25 32 44 55 62 66 68 67 65 63 63 61 57 54 51 48 47 47 45 42 41 42 41 36 31 26 21 18 17 18 21 22 20 17 16 14 12 11 11 11 8 5
20 25 32 41 49 55 61 66 67 65 64 64 63 62 61 59 55 52 51 49 46 45 43 41 37 31 27 23 19 16 14 15 17 16 14 14 15 16 13 11 10 9 6
21 26 31 33 38 47 55 62 66 67 66 66 65 65 66 64 61 56 54 52 50 46 44 42 37 30 25 21 18 15 13 12 12 11 9 11 15 16 14 10 8 7 7
24 30 36 37 41 47 55 61 66 68 67 66 65 66 67 67 63 59 56 53 50 46 44 42 36 29 22 17 14 12 11 10 10 9 8 10 15 16 13 11 8 6 5
27 37 48 51 52 54 57 63 67 69 67 65 64 64 65 65 62 59 56 51 46 44 42 39 32 24 17 11 9 10 11 11 10 9 9 10 13 14 11 9 7 5 4
29 41 53 58 58 58 60 63 67 68 67 64 63 63 62 60 57 55 53 48 41 39 38 34 25 15 9 7 7 9 10 10 10 10 10 9 9 9 7 5 4 3 2
32 41 51 57 59 61 62 63 65 66 66 64 61 61 60 57 53 49 47 44 38 35 34 29 20 11 7 5 5 5 7 8 9 10 11 9 8 6 3 2 1 1 1
33 39 48 56 60 62 62 63 64 64 62 59 57 57 57 55 50 46 44 43 38 34 31 28 22 14 9 5 2 3 4 6 8 10 10 10 8 6 4 2 1 0 0
35 39 46 52 57 59 61 62 62 59 56 53 51 52 52 52 48 43 42 41 38 34 31 30 24 17 11 5 1 1 4 7 8 9 9 9 8 7 5 3 2 1 0
40 41 42 47 53 57 58 59 58 55 51 48 47 46 46 45 41 37 37 38 37 34 31 29 23 16 10 5 1 1 4 7 8 7 7 7 6 5 4 3 2 2 1
44 44 44 47 52 54 54 54 54 52 49 46 45 43 40 38 35 33 34 36 35 32 29 24 19 15 11 6 1 2 6 8 8 7 7 6 4 3 2 2 3 3 2
46 47 48 50 52 51 49 48 48 47 45 43 42 39 36 33 33 33 33 33 32 30 26 20 16 15 12 7 2 2 5 7 8 9 9 6 3 1 1 1 2 2 1
44 47 50 50 50 48 45 43 41 40 39 39 37 35 32 29 30 31 30 28 27 26 24 19 15 14 12 8 2 1 2 4 7 8 8 5 2 0 0 0 1 1 0
43 44 47 48 46 44 42 40 37 36 35 34 31 28 26 24 23 24 22 21 21 22 21 18 15 13 13 9 3 0 0 1 3 5 4 2 0 0 0 0 0 0 0
42 42 43 44 43 41 40 38 35 32 31 30 27 23 20 17 15 15 14 14 16 17 16 14 14 13 13 10 6 3 2 2 2 2 1 0 0 0 0 0 0 0 0
39 39 39 39 39 39 38 35 32 30 30 28 24 20 16 12 10 10 9 9 11 12 9 8 9 10 10 9 7 5 4 3 2 1 1 1 0 0 0 0 0 0 0
39 38 36 35 36 36 35 32 30 30 30 27 23 18 14 11 9 9 7 5 6 6 4 4 6 6 6 5 4 4 4 3 2 1 2 2 1 0 0 0 0 0 0
Wind_Speed
11 11 10 9 9 8 7 6 5 5 4 3 3 2 2 2 2 3 4 3 2 2 2 1 1 1 1 1 1 0 2 2 1 1 1 2 3 3 2 2 2 4 5
11 11 10 9 9 8 7 6 6 6 5 3 2 2 2 2 2 1 2 3 2 2 3 2 2 1 1 1 1 1 1 2 1 1 1 1 1 1 2 2 3 3 3
12 11 11 10 10 9 8 7 6 6 5 4 3 2 1 1 1 2 2 2 3 3 2 2 2 2 2 2 2 2 2 2 2 1 1 1 1 1 1 2 2 2 2
12 12 11 10 9 9 9 7 6 5 5 4 4 4 3 2 2 1 2 2 2 3 3 2 2 2 2 1 2 2 1 2 2 1 2 2 1 1 1 1 1 1 1
13 12 12 10 9 10 10 8 7 6 5 4 4 3 2 2 1 1 2 1 2 2 2 2 2 2 2 2 1 1 1 1 2 2 1 1 1 2 2 1 1 0 0
11 11 11 10 9 9 9 9 8 7 6 5 4 4 3 2 1 1 2 1 1 2 2 2 2 2 2 2 2 1 1 1 2 1 1 1 1 1 1 1 1 1 1
10 11 11 11 10 9 8 9 9 7 7 6 5 4 3 3 2 2 2 2 1 1 1 2 2 2 2 2 2 2 1 1 2 1 1 1 1 1 1 1 1 1 1
8 9 10 10 10 10 8 8 9 8 7 6 5 3 3 3 2 3 2 2 1 1 2 1 1 2 2 2 2 1 2 2 1 2 1 1 2 1 1 1 1 1 1
7 8 9 9 9 8 8 8 9 8 7 7 5 4 4 3 2 2 2 2 1 1 2 2 1 1 1 1 1 1 1 1 1 1 1 1 1 1 1 1 0 1 1
6 7 7 8 8 8 7 8 8 8 7 6 6 5 4 3 2 1 1 1 1 0 1 1 1 2 1 1 1 1 1 0 1 0 1 1 1 1 1 1 1 0 1
6 6 6 7 8 8 9 8 8 8 7 6 6 4 4 4 3 2 1 1 1 0 1 1 1 1 1 1 1 1 1 0 0 1 1 1 2 2 2 1 1 1 1
5 5 6 5 5 6 7 7 7 8 7 6 5 5 4 4 3 3 2 1 1 1 1 1 1 1 2 1 1 1 1 1 1 2 2 3 2 2 2 2 2 1 0
5 5 4 4 4 4 4 5 6 7 7 7 6 5 4 4 3 2 2 2 2 1 1 1 1 1 2 2 1 1 1 2 2 2 3 3 3 3 2 2 2 1 1
6 6 4 4 4 3 3 4 5 6 6 5 5 5 4 4 3 3 3 2 2 2 1 2 2 2 2 2 1 1 2 2 2 3 3 3 3 3 3 2 2 2 1
5 5 5 4 4 4 4 5 5 5 5 5 5 4 4 4 4 3 3 3 3 3 2 2 2 2 2 3 2 1 2 2 2 3 3 4 5 6 4 3 3 3 2
5 5 5 5 5 4 4 5 6 5 5 5 5 5 4 4 4 4 3 3 3 3 3 3 3 3 4 6 6 4 3 3 3 3 3 3 4 6 6 7 7 5 3
5 5 5 5 4 4 4 5 6 6 6 6 5 5 4 4 4 4 4 3 3 3 3 3 4 4 5 6 6 6 3 3 3 3 3 3 5 5 4 4 4 5 6
4 5 5 5 5 5 5 5 6 6 6 6 5 5 4 3 4 4 3 3 3 3 3 3 3 4 5 6 5 5 2 3 4 4 4 4 4 5 5 4 4 4 5
5 5 5 6 5 5 5 5 5 5 5 5 5 5 4 4 4 3 3 2 3 3 3 3 4 4 5 6 5 3 1 2 4 4 5 4 4 6 5 3 4 4 3
6 5 5 6 5 5 5 5 5 4 4 4 4 4 4 4 4 3 3 2 2 3 4 4 4 4 4 5 5 4 1 2 2 3 4 6 5 5 4 2 2 2 2
7 6 6 6 5 5 4 4 5 4 3 4 4 4 4 4 4 3 2 3 3 4 4 4 4 4 4 5 6 5 2 2 2 3 3 3 4 4 4 3 2 1 1
6 6 5 6 6 5 4 4 5 4 4 5 5 5 4 3 4 3 2 3 3 4 4 4 4 3 4 4 4 5 3 3 2 2 2 2 2 2 3 3 3 3 2
6 5 5 7 6 5 4 5 5 5 5 5 5 4 4 4 3 3 2 2 1 2 3 3 3 3 3 3 4 3 2 2 2 2 3 1 1 1 1 2 3 3 2
5 5 5 6 5 4 4 4 4 4 5 5 4 4 4 5 5 4 3 3 2 2 2 3 3 3 3 3 2 2 2 3 2 2 2 2 1 1 1 3 2 1 2
4 4 5 5 5 5 4 4 4 3 4 4 4 4 4 5 5 6 6 5 5 3 3 3 3 3 3 2 2 2 2 1 2 1 1 2 2 2 1 1 1 1 2
4 4 5 5 5 4 4 4 3 3 3 3 3 3 3 4 4 5 6 11 9 10 10 9 6 5 4 3 3 3 3 3 3 2 2 2 1 2 2 1 1 2 2
Wind_Direction
171 164 167 161 156 152 156 161 171 162 168 172 182 187 191 201 195 181 168 176 193 185 211 226 184 202 195 215 220 209 251 252 251 275 295 275 234 209 200 197 184 185 181
168 164 168 166 162 159 162 165 174 171 181 183 181 194 197 214 205 169 157 176 192 215 214 191 203 186 182 217 232 230 258 264 222 196 275 307 327 302 204 168 185 200 169
172 167 171 172 172 168 169 173 175 172 180 183 185 203 194 240 226 185 169 181 191 210 234 200 191 181 205 210 229 231 227 263 269 209 198 219 223 270 281 198 173 180 167
174 172 174 175 175 171 169 166 167 170 173 181 195 201 202 211 217 198 167 181 200 212 207 210 201 199 215 208 231 212 235 250 273 260 227 220 188 204 239 290 186 147 162
173 173 175 173 178 177 172 169 163 169 171 182 194 208 223 216 204 177 168 186 208 213 207 184 217 212 210 213 242 271 265 265 274 285 285 245 227 218 192 214 257 302 211
171 171 170 167 174 179 176 169 163 168 172 181 191 202 222 222 228 191 180 190 208 223 208 181 212 216 210 205 214 237 253 265 285 309 323 293 269 247 204 196 214 232 245
169 169 169 167 172 177 175 167 163 170 176 185 193 197 205 213 221 228 204 210 233 221 220 207 182 205 194 196 198 201 238 257 267 279 277 283 272 262 218 179 217 244 250
157 163 165 167 171 175 173 167 165 170 177 187 190 189 191 206 216 220 232 204 234 238 178 193 185 187 182 202 177 192 219 230 247 270 279 303 310 307 285 207 198 244 257
155 161 165 165 164 171 172 171 163 168 177 184 181 184 187 197 206 201 210 229 227 238 154 152 152 133 149 213 200 190 223 233 250 272 269 269 295 318 319 317 208 197 223
154 157 160 159 162 168 166 169 165 167 173 178 182 185 184 181 187 215 200 206 223 331 80 108 127 138 160 172 203 201 184 225 260 277 3 332 321 318 303 304 286 215 175
148 148 143 151 160 166 172 172 165 166 171 177 180 171 167 169 173 187 200 194 183 158 130 117 116 134 116 128 140 139 140 135 47 341 20 1 348 346 343 345 355 13 88
127 124 127 134 147 160 166 164 164 166 168 166 167 168 159 159 165 171 168 165 155 129 123 141 127 115 113 118 104 71 48 35 32 7 11 9 358 7 354 357 358 360 31
95 89 99 109 112 123 138 150 154 156 161 162 168 163 153 149 150 149 143 125 120 126 125 115 105 102 99 95 89 80 67 50 45 35 36 21 15 15 5 356 355 333 334
100 99 93 86 87 91 116 129 135 139 144 153 159 147 140 138 136 130 122 115 107 98 91 94 93 90 87 77 75 81 82 67 57 48 49 40 32 21 5 5 355 353 0
113 110 100 94 96 94 106 118 122 123 136 139 134 129 129 130 127 123 119 112 111 108 94 92 86 88 82 51 44 54 86 78 68 56 51 51 56 56 43 29 13 4 9
122 116 110 104 100 99 107 113 116 120 123 122 122 118 123 128 127 123 117 113 107 101 95 88 76 61 57 51 53 55 53 60 60 51 40 48 49 54 60 53 46 41 35
120 117 115 110 107 105 98 109 112 114 113 114 118 120 125 128 127 121 115 112 111 105 93 86 85 82 57 47 51 54 55 63 61 56 39 26 36 39 33 47 46 42 46
110 114 118 113 112 112 106 109 117 116 118 121 125 127 130 127 118 114 111 111 110 106 99 93 90 89 60 45 46 40 53 64 67 61 52 50 39 31 25 34 47 47 38
88 101 116 117 111 110 111 112 114 118 124 127 127 129 129 126 119 116 120 116 114 110 103 96 91 88 71 48 45 38 76 83 84 76 61 51 46 26 34 44 52 50 40
85 87 93 98 100 105 110 115 118 117 117 118 117 111 108 115 115 115 111 110 117 118 115 103 98 98 90 61 52 44 71 86 96 100 83 56 34 19 30 57 67 56 21
92 88 88 94 93 95 103 109 103 98 102 105 101 102 100 105 110 109 113 119 117 118 118 113 105 94 90 76 60 51 58 48 74 88 84 65 40 31 25 38 48 20 345
92 96 97 94 92 94 107 106 97 92 93 95 94 93 94 101 105 107 109 119 129 131 131 129 121 108 96 77 71 67 60 41 54 67 80 92 77 50 12 26 10 6 1
89 95 98 97 91 85 89 97 93 95 98 98 96 95 91 81 84 97 105 109 116 130 127 123 117 103 93 83 80 90 79 66 71 54 47 50 143 84 54 35 18 22 3
85 92 98 103 97 88 83 84 89 99 107 107 105 103 98 88 67 56 59 56 36 56 87 96 99 99 89 74 69 87 91 91 88 79 80 85 57 31 50 51 37 19 24
101 100 99 97 94 91 84 80 82 92 107 112 112 106 99 99 86 68 46 52 50 46 56 56 73 86 89 49 53 77 69 68 74 67 99 88 85 82 73 65 49 27 31
97 100 101 99 97 96 92 82 81 95 106 121 124 118 114 107 107 105 80 53 60 64 66 67 79 83 87 93 80 66 61 61 69 87 100 81 65 60 59 48 43 45 38